New Cumberland, PA

4:40 AM EST on December 04, 2016 (GMT -0500)
Capital City

Weather History for KCXY - September, 2013

Change the Weather History Date:

Wednesday, September 11, 2013

  Actual Average Record
Temperature  
Mean Temperature 84 °F -  
Max Temperature 95 °F 76 °F 97 °F (1964)
Min Temperature 73 °F 58 °F 40 °F (1917)
Cooling Degree Days 19    
Growing Degree Days 34 (Base 50)    
Moisture  
Dew Point 71 °F    
Average Humidity 71    
Maximum Humidity 91    
Minimum Humidity 46    
Precipitation  
Precipitation 0.00 in - - ()
Sea Level Pressure  
Sea Level Pressure 30.06 in    
Wind  
Wind Speed 3 mph (SW)    
Max Wind Speed 10 mph    
Max Gust Speed 18 mph    
Visibility 8 miles    
Events Rain , Thunderstorm    
Averages and records for this station are not official NWS values.
T = Trace of Precipitation, MM = Missing Value Source: NWS Daily Summary

Daily Weather History Graph

Daily Weather History Graph

Search for Another Location

Airport or City:

Trip Planner

Search our weather history database for the weather conditions in past years. The results will help you decide how hot, cold, wet, or windy it might be!

Date:

Astronomy

Sep. 11, 2013 Rise Set
Actual Time 6:44 AM EDT 7:22 PM EDT
Civil Twilight 6:17 AM EDT 7:49 PM EDT
Nautical Twilight 5:44 AM EDT 8:22 PM EDT
Astronomical Twilight 5:11 AM EDT 8:55 PM EDT
Moon 1:11 PM EDT (9/11) 11:15 PM EDT (9/11)
Length of Visible Light 13h 32m
Length of Day
12h 37m
Waxing Crescent, 38% of the Moon is Illuminated
Sep 11
Waxing Crescent
Sep 12
First Quarter
Sep 19
Full
Sep 26
Last Quarter
Oct 4
New

Hourly Weather History & Observations

Time (EDT) Temp. Heat Index Dew Point Humidity Pressure Visibility Wind Dir Wind Speed Gust Speed Precip Events Conditions
12:56 AM 75.9 °F - 71.1 °F 85% 30.13 in 8.0 mi West 3.5 mph - N/A   Clear
1:56 AM 75.9 °F - 71.1 °F 85% 30.12 in 8.0 mi Calm Calm - N/A   Clear
2:56 AM 73.9 °F - 71.1 °F 91% 30.11 in 7.0 mi West 3.5 mph - N/A   Clear
3:56 AM 73.9 °F - 71.1 °F 91% 30.10 in 6.0 mi Calm Calm - N/A   Clear
4:56 AM 73.9 °F - 71.1 °F 91% 30.10 in 6.0 mi Calm Calm - N/A   Clear
5:56 AM 73.0 °F - 70.0 °F 90% 30.12 in 6.0 mi Calm Calm - N/A   Clear
6:56 AM 73.0 °F - 70.0 °F 90% 30.14 in 4.0 mi Calm Calm - N/A   Clear
7:56 AM 75.9 °F - 71.1 °F 85% 30.14 in 4.0 mi Calm Calm - N/A   Haze
8:56 AM 79.0 °F - 72.0 °F 79% 30.14 in 6.0 mi WNW 4.6 mph - N/A   Haze
9:56 AM 82.0 °F 86.7 °F 72.0 °F 71% 30.14 in 6.0 mi Calm Calm - N/A   Haze
10:56 AM 86.0 °F 92.2 °F 72.0 °F 63% 30.12 in 7.0 mi WNW 6.9 mph - N/A   Clear
11:56 AM 90.0 °F 97.9 °F 73.0 °F 57% 30.10 in 8.0 mi NW 4.6 mph - N/A   Clear
12:56 PM 91.0 °F 98.2 °F 72.0 °F 53% 30.09 in 8.0 mi Calm Calm - N/A   Mostly Cloudy
1:56 PM 93.0 °F 101.9 °F 73.0 °F 52% 30.05 in 8.0 mi SSW 6.9 mph - N/A   Partly Cloudy
2:56 PM 93.9 °F 100.3 °F 70.0 °F 46% 30.02 in 10.0 mi South 9.2 mph - N/A   Partly Cloudy
3:56 PM 95.0 °F 102.5 °F 71.1 °F 46% 30.00 in 8.0 mi South 10.4 mph - N/A   Scattered Clouds
4:56 PM 93.0 °F 99.0 °F 70.0 °F 47% 30.00 in 9.0 mi South 5.8 mph 18.4 mph N/A   Clear
5:56 PM 91.9 °F 98.4 °F 71.1 °F 50% 29.99 in 9.0 mi SSW 5.8 mph - N/A   Partly Cloudy
6:56 PM 89.1 °F 94.1 °F 70.0 °F 53% 29.99 in 9.0 mi SSW 4.6 mph - N/A   Mostly Cloudy
7:56 PM 84.0 °F 88.4 °F 70.0 °F 63% 30.01 in 10.0 mi North 3.5 mph - N/A   Mostly Cloudy
8:47 PM 82.4 °F 87.2 °F 71.6 °F 70% 30.04 in 9.0 mi ESE 6.9 mph - 0.00 in Rain , Thunderstorm Light Rain
8:56 PM 81.0 °F 84.9 °F 71.1 °F 72% 30.04 in 10.0 mi East 4.6 mph - 0.00 in Rain , Thunderstorm Light Rain
9:10 PM 82.4 °F 86.3 °F 69.8 °F 66% 30.04 in 10.0 mi ESE 5.8 mph - 0.00 in Rain Light Rain
9:26 PM 80.6 °F 84.6 °F 71.6 °F 74% 30.02 in 9.0 mi SE 3.5 mph - 0.00 in Rain , Thunderstorm Light Thunderstorms and Rain
9:41 PM 78.8 °F - 71.6 °F 78% 30.03 in 8.0 mi West 3.5 mph - 0.00 in   Scattered Clouds
9:56 PM 78.1 °F - 73.0 °F 84% 30.02 in 7.0 mi West 3.5 mph - 0.00 in   Partly Cloudy
10:56 PM 79.0 °F - 72.0 °F 79% 30.01 in 9.0 mi Calm Calm - N/A   Mostly Cloudy
11:56 PM 75.9 °F - 72.0 °F 87% 30.00 in 6.0 mi SW 3.5 mph - N/A   Partly Cloudy